Regional Weather Roundup
Issued by NWS

Home | Current Version | Previous Version | Text Only | Print | Product List | Glossary Off
Versions: 1 2 3 4 5 6 7 8 9 10 11 12 13 14 15 16 17 18 19 20 21 22 23 24 25 26 27 28 29 30 31 32 33 34 35 36 37 38 39 40 41 42 43 44 45 46 47 48 49 50

000
ASUS43 KFSD 291710
RWRSD

WEATHER ROUNDUP FOR SOUTH DAKOTA
NATIONAL WEATHER SERVICE SIOUX FALLS SD
1200 PM CDT WED JUL 29 2015

NOTE: "FAIR" INDICATES FEW OR NO CLOUDS BELOW 12,000 FEET WITH NO
SIGNIFICANT WEATHER AND/OR OBSTRUCTIONS TO VISIBILITY.


SDZ001>005-009-010-012>017-291800-
NORTHWEST AND NORTH CENTRAL SOUTH DAKOTA

CITY           SKY/WX    TMP DP  RH WIND       PRES   REMARKS
BUFFALO          N/A     77  36  22 NW28G36   30.14S
FAITH            N/A     79  40  24 W20G26    30.17S
MOBRIDGE       SUNNY     80  50  34 NW17      30.08R
$$

SDZ012>016-024>037-041>051-057-063-072>074-291800-
SOUTHWEST AND SOUTH CENTRAL SOUTH DAKOTA

CITY           SKY/WX    TMP DP  RH WIND       PRES   REMARKS
RAPID CTY ARPT SUNNY     77  41  27 NW10      30.25F
PIERRE         SUNNY     85  40  20 W23       30.13S
CUSTER         SUNNY     67  34  29 W13       30.37F
ELLSWORTH AFB  SUNNY     77  40  26 VRB7      30.25R
PHILIP         SUNNY     82  46  28 NW15      30.19F
PINE RIDGE     SUNNY     76  40  27 W10       30.30S
SPEARFISH      FAIR      72  37  28 NW13G20   30.29S
WINNER         FAIR      84  41  21 W17       30.19F
$$

SDZ004>011-016>023-039-040-291800-
NORTHEAST SOUTH DAKOTA

CITY           SKY/WX    TMP DP  RH WIND       PRES   REMARKS
ABERDEEN       SUNNY     79  51  37 W16G24    30.04R
WATERTOWN      SUNNY     76  52  43 W22G30    30.05S
BROOKINGS      SUNNY     73  54  49 W18G28    30.10F
SISSETON         N/A     77  54  44 NW29G36   29.96S
$$

SDZ017-020-022-023-036>040-048>070-291800-
SOUTHEAST SOUTH DAKOTA

CITY           SKY/WX    TMP DP  RH WIND       PRES   REMARKS
SIOUX FALLS    SUNNY     77  56  48 W10G21    30.13S
HURON          SUNNY     79  51  37 W20G28    30.09F
CHAMBERLAIN    SUNNY     80  47  32 W18G25    30.16F
MITCHELL       SUNNY     81  50  33 W17G26    30.14R
YANKTON        SUNNY     79  54  41 SW16      30.15F
$$

ABBREVIATIONS USED IN REMARKS
   TC - TEMPERATURE IN CELSIUS
  WCI - WIND CHILL INDEX
   HX - HEAT INDEX
  VSB - VISIBILITY



USA.gov is the U.S. government's official web portal to all federal, state and local government web resources and services.